Regional Weather Roundup
Issued by NWS

Home | Current Version | Previous Version | Graphics & Text | Print | Product List | Glossary On
Versions: 1 2 3 4 5 6 7 8 9 10 11 12 13 14 15 16 17 18 19 20 21 22 23 24 25 26 27 28 29 30 31 32 33 34 35 36 37 38 39 40 41 42 43 44 45 46 47 48 49 50
000
ASUS45 KPSR 230110
RWRAZ

ARIZONA HOURLY REGIONAL WEATHER ROUNDUP
NATIONAL WEATHER SERVICE PHOENIX AZ
600 PM MST THU FEB 22 2018

NOTE: FAIR INDICATES FEW OR NO CLOUDS BELOW 12,000 FEET WITH NO
SIGNIFICANT WEATHER AND/OR OBSTRUCTIONS TO VISIBILITY.

AZZ001>003-036-230200-
NORTHWEST ARIZONA

CITY           SKY/WX    TMP DP  RH WIND       PRES   REMARKS
BULLHEAD CITY  MOCLDY    61  16  17 S18       30.01F
KINGMAN        PTCLDY    45  17  32 SW21G30   30.02S
$$

AZZ004>008-015-016-018-230200-
NORTH CENTRAL ARIZONA

CITY           SKY/WX    TMP DP  RH WIND       PRES   REMARKS
GRAND CANYON   PTCLDY    31   6  35 SW16G36   29.96S WCI  20
WILLIAMS       CLEAR     30   9  40 SW20G38   29.96R WCI  18
PRESCOTT       PTCLDY    39  17  41 S13G23    30.05S WCI  31
FLAGSTAFF      PTCLDY    27   7  42 S17G29    29.98R WCI  14
PAYSON         PTCLDY    37   9  30 SW7       30.09S WCI  32
PAGE           CLOUDY    43   9  24 NW5       29.93F
$$

AZZ009>014-017-230200-
NORTHEAST ARIZONA

CITY           SKY/WX    TMP DP  RH WIND       PRES   REMARKS
WINSLOW        CLEAR     41   5  22 SW15      30.02R
SAINT JOHNS    PTCLDY    40  10  29 W18       30.01R WCI  31
WINDOW ROCK    MOCLDY    35  10  35 S14G26    29.98R WCI  26
SHOW LOW       PTCLDY    34  10  37 S23G32    30.05R WCI  22
$$

AZZ540-542>544-546-548-230200-
GREATER PHOENIX AREA

CITY           SKY/WX    TMP DP  RH WIND       PRES   REMARKS
PHOENIX        PTCLDY    59  23  25 W6        30.10S
BUCKEYE        CLEAR     57  21  24 SW6       30.12S
GLENDALE       PTCLDY    61  21  21 S14       30.12F
LUKE AFB       CLEAR     59  21  23 S12       30.09F
DEER VALLEY    CLEAR     56  22  26 SW12      30.10F
SCOTTSDALE     CLEAR     57  24  28 W5        30.12S
MESA-FALCON    PTCLDY    57  25  28 SW5       30.12F
MESA-GATEWAY   PTCLDY    57  23  26 SW6       30.13F
$$

AZZ539-553-230200-
SOUTHWEST MARICOPA COUNTY AND PINAL COUNTY

CITY           SKY/WX    TMP DP  RH WIND       PRES   REMARKS
CASA GRANDE      N/A     58  22  24 CALM      30.12S
GILA BEND      CLEAR     60  16  17 SW10      30.11S
$$

AZZ503-504-507>509-230200-
SOUTHEAST ARIZONA

CITY           SKY/WX    TMP DP  RH WIND       PRES   REMARKS
TUCSON         CLEAR     56  18  22 CALM      30.13F
DAVIS-MONTHAN  CLEAR     56  18  23 CALM      30.11F
RYAN FIELD     CLEAR     55  19  24 N3        30.14S
NOGALES        CLEAR     52  19  27 W8        30.12S
SIERRA VISTA   PTCLDY    51  18  27 W8        30.13R
DOUGLAS        CLEAR     54  21  27 W7        30.11R
SAFFORD        CLEAR     54  12  18 CALM      30.09S
$$

AZZ532-230200-
SOUTHWEST ARIZONA

CITY           SKY/WX    TMP DP  RH WIND       PRES   REMARKS
YUMA           CLEAR     62  27  26 SW8       30.11F
$$

CAZ041-043-047-048-061-525>527-560>570-230200-
SOUTHERN CALIFORNIA

CITY           SKY/WX    TMP DP  RH WIND       PRES   REMARKS
DOWNTOWN L.A.  PTCLDY    57  39  51 VRB5      30.16S
L.A. AIRPORT   PTCLDY    57  42  57 W14       30.17S
SAN DIEGO      MOCLDY    56  46  69 CALM      30.22F
BURBANK        PTCLDY    55  39  54 S9        30.13S
ONTARIO        MOCLDY    55  35  47 SW15      30.13S
RIVERSIDE      PTCLDY    56  32  40 W14       30.14S
PALM SPRINGS   PTCLDY    62  29  28 S6        30.07S
EL CENTRO NAS  MOCLDY    62  34  35 SW22G30   30.13F
IMPERIAL       PTCLDY    63  35  35 W21G31    30.10S
BLYTHE         CLEAR     62  29  28 SW21G29   30.07F
NEEDLES        CLOUDY    62  22  21 SW14      30.03F
$$

NVZ020-UTZ003-230200-
SOUTHERN NEVADA-UTAH

CITY           SKY/WX    TMP DP  RH WIND       PRES   REMARKS
LAS VEGAS      PTCLDY    54  17  23 SW16G29   29.90F
SALT LAKE CITY CLOUDY    35  17  47 SW7       29.94R WCI  29
$$

NMZ009-TXZ055-230200-
NEW MEXICO-WEST TEXAS

CITY           SKY/WX    TMP DP  RH WIND       PRES   REMARKS
ALBUQUERQUE    PTCLDY    46   9  22 NW6       30.02R
EL PASO        PTCLDY    60  18  19 W8        30.06R
$$


........................KEY........................
SKY/WX - SKY CONDITION/WEATHER
TMP    - TEMPERATURE IN FAHRENHEIT
DP     - DEW POINT IN FAHRENHEIT
RH     - RELATIVE HUMIDITY IN PERCENT
WIND   - DIRECTION AND SPEED IN MILES PER HOUR (MPH)
VRB    - VARIABLE WIND DIRECTION
PRES   - MEAN SEA LEVEL PRESSURE IN INCHES OF MERCURY
         F - FALLING PRESSURE   R - RISING PRESSURE
         S - STEADY PRESSURE
VSB    - VISIBILITY IN MILES
HX     - HEAT INDEX IN FAHRENHEIT
WCI    - WIND CHILL INDEX IN FAHRENHEIT
TC     - TEMPERATURE IN CELSIUS WHICH IS ALSO KNOWN AS
         TEMPERATURE IN CENTIGRADE
AFB    - AIR FORCE BASE
         LUKE AFB IS LUKE AIR FORCE BASE
         DAVIS-MONTHAN IS DAVIS-MONTHAN AIR FORCE BASE
NAS    - NAVAL AIR STATION
         EL CENTRO NAS IS EL CENTRO NAVAL AIR STATION
N/A    - NOT AVAILABLE




USA.gov is the U.S. government's official web portal to all federal, state and local government web resources and services.